Location: Aldenham
(51.6667°N, 0.3500°W)
Time: 19:03:21
(UTC+00:00)

A-11 Canister half - Pass Details

Date: 16 February 2026
Orbit: 1512 x 1687 km, 47.2° (Epoch: 8 March)

Event Time Altitude Azimuth Distance (km) Brightness Sun altitude
Rises 19:10:40 0° 179° (S) 4,929 11.6 -18.0°
Reaches altitude 10° 19:15:34 10° 159° (SSE) 3,941 10.9 -18.8°
Enters shadow 19:19:50 16° 134° (SE) 3,498 10.4 -19.4°
Maximum altitude 19:20:55 16° 126° (SE) 3,475 - -19.6°
Drops below altitude 10° 19:26:13 10° 94° (E) 3,911 - -20.4°
Sets 19:31:00 0° 74° (ENE) 4,875 - -21.2°
